RH
36 35 35 35 36 37 37 37 38 38 39 39 39 39 39 40 40 41 41 42 42 42 42 42 42 42 42 42 42 42 43 44 45 46 47 48 49 51 53 54 56 57 58 58 58 58 58 58 57 56 55 55 54 54 53 54 54 55 55 55 56 56 56 57 58 58 59 59 58 57 56 56 56 56 56 56 56 56 56 55 54 53 51 49 49 49
35 34 34 34 35 35 35 35 36 37 38 38 38 38 38 39 39 40 40 40 41 41 41 42 42 42 41 41 42 42 42 43 44 44 45 46 47 48 51 53 55 56 57 57 57 57 56 55 54 53 52 51 51 51 51 52 53 53 53 53 54 54 55 55 56 57 58 57 57 56 55 55 56 55 55 56 56 57 57 56 55 54 52 51 50 50
35 34 34 33 33 34 34 34 35 36 37 37 37 37 37 38 39 39 39 40 40 40 41 41 41 41 42 42 42 42 43 43 43 43 43 44 45 47 49 51 53 55 56 55 55 54 53 52 51 49 48 48 48 48 49 50 50 51 52 52 52 52 53 53 54 55 56 56 55 54 54 54 54 54 55 55 56 56 56 56 55 54 53 52 52 51
33 33 33 33 32 32 31 32 33 34 35 36 36 36 36 37 37 38 39 39 39 39 39 40 40 41 41 41 42 42 43 43 42 42 42 43 44 46 48 50 51 53 53 52 52 51 49 48 47 46 45 45 46 46 47 48 49 50 50 51 50 50 51 52 53 54 55 54 54 53 53 53 53 54 54 54 54 55 55 55 55 54 54 53 53 53
33 32 32 32 32 31 30 30 31 33 34 35 35 35 35 35 36 37 38 38 39 39 38 38 38 38 39 40 40 41 41 41 41 41 41 42 43 45 46 48 49 49 49 49 48 47 46 44 44 43 43 43 44 44 45 46 47 48 49 49 49 49 49 50 52 53 53 53 52 52 52 52 53 53 53 53 53 53 53 53 53 53 53 53 53 53
33 32 32 32 32 31 30 30 30 32 33 34 34 34 34 34 35 35 36 37 38 37 37 37 36 37 37 37 38 39 39 40 40 40 40 40 41 42 43 44 45 46 46 45 44 43 42 41 41 41 41 41 42 43 44 45 46 47 47 47 47 48 48 50 51 52 52 51 51 51 52 52 53 53 53 52 52 52 53 53 53 53 52 52 52 53
34 33 33 33 32 32 31 30 30 31 32 33 33 34 34 34 34 34 35 35 36 36 36 36 35 35 35 36 36 37 38 38 38 38 38 38 39 39 40 41 42 42 42 42 42 41 40 39 39 39 39 40 41 42 43 44 45 45 46 46 46 47 48 49 50 50 50 51 51 51 51 52 53 53 52 51 51 52 53 54 54 53 52 51 51 51
35 35 34 34 34 33 33 32 32 32 33 33 34 34 34 34 35 35 35 35 35 35 35 35 34 34 34 34 35 35 36 36 36 36 36 36 37 37 37 38 39 39 40 40 39 39 38 38 38 38 39 40 41 42 42 43 44 44 44 45 45 46 47 49 49 49 50 50 50 51 51 52 52 52 51 50 51 52 53 54 54 54 53 51 51 51
36 36 36 35 35 35 35 34 33 33 34 35 36 36 36 35 35 35 35 35 35 35 35 35 34 34 33 33 34 35 35 35 35 35 35 35 35 35 35 35 36 37 38 38 38 38 38 38 38 38 39 40 41 42 42 43 43 43 43 44 45 46 47 48 48 48 49 49 49 50 50 51 52 51 51 50 50 51 53 54 54 54 54 52 51 51
36 36 36 36 36 36 36 36 35 35 36 37 38 38 38 38 37 37 37 37 36 36 36 36 36 35 34 34 34 35 35 35 35 34 34 34 34 34 34 34 34 35 36 37 37 37 38 38 38 39 40 40 41 42 42 42 42 42 43 44 45 46 47 47 47 47 47 48 48 49 49 50 50 50 50 49 49 50 52 53 53 53 52 51 51 51
36 36 36 36 36 36 36 36 35 35 36 37 39 39 39 39 39 39 39 38 38 37 38 38 38 37 36 36 35 35 36 35 35 35 35 35 35 34 33 33 33 33 34 35 36 37 37 38 39 39 40 41 41 41 41 42 42 43 44 45 46 47 46 46 46 46 46 46 47 47 48 48 49 49 48 48 47 48 50 52 53 52 51 51 51 52
35 35 35 35 35 35 35 34 34 35 35 37 38 39 40 40 40 40 41 40 39 39 39 39 39 39 39 38 37 37 37 36 36 36 36 36 35 35 34 33 32 33 33 34 34 35 36 37 39 40 41 41 41 41 41 42 43 44 45 46 46 47 46 46 46 45 45 45 46 46 46 47 47 47 47 47 47 46 47 50 51 51 51 51 52 53
36 36 36 35 35 34 33 33 34 35 36 36 37 37 38 38 39 40 41 41 40 40 40 41 41 41 40 40 39 39 38 38 37 37 37 37 37 36 35 34 33 32 32 33 34 34 35 37 38 40 41 41 41 41 41 42 44 45 46 47 47 47 46 46 46 45 45 45 45 45 45 45 46 46 46 46 45 45 45 47 49 50 51 52 53 53
39 38 38 37 36 35 34 35 36 36 36 36 35 35 35 36 37 39 39 40 40 40 41 42 43 43 42 42 41 40 40 40 40 39 39 39 39 38 37 35 34 33 33 33 33 34 34 36 38 39 40 41 41 41 42 43 45 47 48 48 48 47 46 46 46 45 45 45 45 45 45 44 44 45 45 45 45 44 45 45 47 48 50 52 53 53
42 41 41 40 39 38 37 38 37 37 37 36 36 35 36 36 37 37 38 38 38 39 41 43 43 44 43 43 43 42 42 42 42 42 42 42 42 41 40 38 36 35 34 34 34 34 35 36 38 39 40 41 41 42 43 44 46 48 49 49 48 47 47 46 46 45 45 45 45 45 45 44 44 44 44 44 43 44 44 44 45 47 49 51 53 53
44 44 43 43 42 42 41 40 40 40 39 39 38 37 37 37 37 36 36 36 37 39 42 44 45 45 44 44 44 44 43 43 43 43 43 44 44 44 43 42 40 38 36 35 35 35 36 37 38 39 40 41 42 43 44 45 47 48 49 49 49 48 47 47 46 46 45 45 45 45 45 44 44 44 43 43 43 43 43 43 45 47 49 51 52 53
44 45 44 44 44 44 43 43 43 42 42 41 40 40 39 38 37 36 35 36 37 40 42 44 45 46 45 44 44 44 45 45 45 45 45 45 45 46 45 44 42 40 38 37 37 36 37 38 39 40 41 42 43 44 45 46 47 48 49 50 49 49 48 47 47 46 46 46 45 45 45 44 44 44 43 43 43 42 42 43 44 46 49 51 52 53
43 44 44 44 44 44 44 44 44 44 43 43 42 42 41 40 39 38 37 37 38 40 41 43 44 45 45 45 45 45 45 47 47 47 46 46 46 46 46 45 44 42 41 39 38 38 39 40 41 42 42 44 45 46 47 48 48 49 50 50 50 49 49 48 47 47 46 46 45 45 45 45 44 44 43 43 42 42 42 42 44 46 49 51 52 53
40 41 41 42 42 42 42 43 43 44 44 43 43 43 43 42 41 40 38 38 38 39 40 41 42 43 44 45 45 45 46 47 49 49 48 47 46 46 46 46 45 44 43 41 40 40 40 41 42 43 44 46 47 49 50 50 50 50 50 51 51 50 50 49 48 47 46 46 46 45 45 44 44 44 43 43 43 42 42 43 44 46 49 51 52 53
36 37 38 38 39 39 40 40 40 41 42 41 42 42 43 42 42 41 40 39 38 38 39 40 40 41 42 43 44 45 46 47 49 49 48 47 47 47 47 47 46 46 44 43 42 42 42 43 44 45 46 48 50 51 53 52 52 51 51 52 52 51 50 49 49 48 47 46 46 46 45 45 45 44 44 43 43 43 43 43 44 46 49 51 52 53
33 34 34 34 35 36 36 37 37 38 38 39 39 40 40 41 41 41 40 40 38 38 37 38 38 39 40 42 44 45 46 47 49 49 49 48 48 48 48 48 48 47 46 45 44 44 44 45 46 47 48 50 52 54 56 56 55 54 53 53 52 52 51 50 49 49 48 47 47 46 46 45 45 44 44 44 43 43 43 44 45 47 49 50 52 52
29 29 29 29 31 32 33 34 34 35 35 36 36 37 38 38 39 39 39 38 37 36 35 35 36 38 40 41 42 43 45 46 47 48 48 48 48 48 48 49 49 49 48 47 47 46 46 47 47 48 49 51 54 56 58 58 58 56 55 54 53 52 52 51 50 49 49 48 47 47 46 46 45 45 45 44 44 44 44 44 45 47 49 50 51 52
24 22 20 21 23 25 28 30 31 32 33 33 34 34 35 35 36 37 38 37 35 34 33 34 35 37 38 38 39 40 42 43 44 46 47 48 47 47 48 49 50 51 50 50 49 49 49 49 50 50 51 53 56 58 60 60 60 59 57 56 54 53 52 51 51 50 49 49 48 48 47 47 46 46 45 45 44 44 44 45 46 47 49 50 51 52
18 17 16 15 16 17 21 24 27 29 30 30 31 32 33 33 35 36 36 36 36 35 35 35 36 36 36 36 36 37 38 39 41 43 45 45 46 46 47 49 51 52 52 52 51 52 52 52 52 53 53 55 57 59 61 62 61 61 60 58 56 55 53 52 51 51 50 50 49 49 48 48 47 47 46 46 45 45 45 45 46 47 48 50 51 51
16 15 14 14 13 13 16 20 23 26 27 28 28 29 30 30 32 33 34 35 35 35 36 36 36 36 35 34 34 35 36 37 39 40 42 43 43 44 45 48 50 52 53 53 54 54 55 55 55 55 55 56 58 60 62 63 63 62 61 60 58 57 55 54 53 52 51 51 50 50 49 49 48 48 47 47 46 46 46 46 46 47 48 49 51 51
17 17 17 16 15 15 18 21 23 24 25 25 26 26 27 28 29 30 31 32 33 34 36 38 39 37 35 34 33 33 34 36 38 40 42 43 43 43 43 46 48 51 54 55 55 56 57 57 56 56 56 57 59 61 63 64 64 64 63 61 60 59 57 56 54 53 52 51 51 51 51 50 49 49 48 48 47 47 47 47 47 48 49 50 51 52
20 22 22 21 20 17 16 19 21 23 24 25 25 26 26 27 27 27 27 29 31 34 37 41 42 40 37 35 34 33 33 35 38 40 43 45 45 44 43 44 46 50 53 55 56 57 58 58 58 57 57 58 60 62 64 65 65 65 64 63 62 60 59 58 56 55 53 52 52 52 51 51 51 50 50 49 49 49 48 48 48 49 49 50 51 53
23 24 23 22 20 20 19 20 22 23 24 24 25 26 28 30 29 28 27 29 33 36 39 42 43 42 39 37 34 33 34 36 39 43 46 48 48 47 43 43 44 48 51 54 56 58 59 59 59 59 58 59 60 62 64 66 67 66 65 64 63 62 61 59 57 56 55 54 53 52 52 52 52 52 51 51 50 50 50 50 50 50 50 51 52 54
25 25 23 23 23 24 25 25 25 25 24 25 24 25 28 32 33 32 31 33 37 40 41 43 44 44 42 39 37 36 36 37 41 46 52 54 53 50 46 44 44 46 50 53 56 58 59 60 60 60 59 60 61 62 65 66 67 67 66 66 65 63 62 60 59 58 56 55 54 53 53 53 53 53 53 52 52 52 51 51 51 51 52 53 53 54
26 26 26 26 26 26 26 26 25 25 25 24 23 23 25 29 33 35 36 38 40 42 43 45 47 48 47 45 43 41 37 37 41 48 55 56 56 53 49 46 44 45 47 52 56 59 60 60 60 60 61 61 62 63 65 67 68 68 67 66 65 64 63 62 60 59 57 56 55 55 54 54 54 54 54 54 54 53 53 53 53 53 53 54 54 55
26 26 26 25 25 26 26 26 25 25 25 23 22 22 23 25 28 32 35 39 41 42 43 47 50 52 52 52 50 47 40 37 40 46 54 56 57 55 53 49 47 45 46 50 55 58 60 60 60 60 61 63 64 65 66 68 68 68 68 67 66 65 64 63 62 60 59 57 56 56 55 56 56 56 56 55 55 55 54 54 54 54 54 55 55 55
26 26 26 25 26 26 26 25 25 25 25 24 22 21 20 21 23 25 28 32 35 38 40 45 49 52 53 54 53 50 45 39 38 43 51 55 56 56 54 52 50 49 47 49 52 56 59 60 60 61 62 64 65 66 68 68 69 69 68 68 67 66 65 64 63 62 60 59 58 57 57 57 57 57 57 57 57 56 56 56 56 56 56 56 55 55
26 26 26 25 25 25 25 25 25 25 25 25 24 23 21 19 19 20 21 23 25 28 32 38 44 49 52 53 53 52 49 42 38 39 46 52 55 56 55 54 53 52 51 50 51 54 57 59 60 61 63 65 67 68 69 69 69 69 68 68 67 66 66 65 64 63 61 60 59 58 58 58 58 58 59 58 58 58 57 57 57 57 57 57 56 56
26 25 24 24 23 23 23 23 24 24 24 24 24 23 22 19 18 17 17 18 19 21 23 28 35 41 47 50 52 51 50 43 38 37 41 47 52 55 55 55 54 54 54 52 52 52 55 58 60 62 64 66 68 70 70 70 69 69 69 68 68 67 66 66 65 64 62 61 60 60 59 59 60 60 60 60 60 59 59 59 59 58 58 57 57 57
24 22 21 20 20 19 19 19 20 21 21 22 22 22 21 20 18 17 16 17 18 19 20 22 26 31 37 42 45 47 46 41 38 36 37 42 47 51 54 54 55 54 54 51 50 50 53 56 60 62 65 67 69 70 71 70 70 69 69 69 68 68 67 66 65 64 64 63 62 61 61 61 62 62 62 61 61 61 60 60 60 59 59 58 58 58
27 25 24 23 22 21 19 19 19 20 21 21 21 21 22 21 21 20 18 18 19 20 21 21 22 24 28 32 36 38 39 38 36 36 35 37 40 44 48 50 51 51 50 47 46 47 50 55 59 63 66 68 70 71 71 71 70 70 69 69 68 68 68 67 66 65 64 64 63 63 63 63 63 63 63 63 62 62 62 61 61 60 60 59 59 59
32 31 30 29 28 27 26 26 26 25 25 25 24 24 24 24 24 23 22 20 20 21 22 23 23 23 23 25 27 30 32 33 34 33 32 33 35 37 41 43 44 45 44 42 41 43 48 55 60 64 66 68 69 71 71 71 71 71 70 69 68 68 68 67 67 66 65 64 64 64 64 64 64 64 64 64 63 63 63 62 62 61 61 60 60 61
34 35 35 33 32 32 32 32 31 31 31 30 28 26 25 25 25 25 25 23 22 22 23 24 25 25 25 24 25 26 27 29 31 30 30 30 31 32 34 36 37 38 38 37 38 42 48 55 61 65 66 67 69 70 71 72 72 71 71 69 69 68 68 68 67 67 66 65 65 65 65 65 65 65 65 64 64 64 64 64 63 62 62 61 61 62
35 34 34 33 32 31 31 31 32 32 32 31 30 28 26 24 24 24 25 26 27 27 27 27 26 26 26 26 26 26 26 28 30 31 30 30 30 30 31 31 32 33 34 35 38 42 49 55 60 63 65 67 68 70 71 72 72 72 71 70 69 68 68 68 68 67 67 67 66 66 66 66 66 65 65 65 65 65 65 65 64 64 63 63 64 65
36 33 31 30 29 28 28 27 27 28 28 28 28 27 26 25 23 23 25 28 30 32 32 31 29 27 26 27 27 27 28 29 31 33 33 32 32 31 30 31 31 32 33 35 39 44 51 56 60 63 64 66 68 70 71 72 72 72 72 71 70 69 67 67 68 68 68 67 67 67 67 67 67 66 66 66 66 66 66 66 66 65 65 65 66 68
36 34 31 29 28 27 26 25 24 23 22 22 23 23 24 23 22 21 21 24 28 32 34 33 31 29 27 27 28 29 30 32 33 34 35 34 34 33 31 32 33 33 35 37 41 46 53 58 62 64 66 67 69 71 71 71 72 72 72 71 70 68 67 67 68 68 68 69 68 68 68 68 68 68 67 67 67 67 68 68 67 67 67 68 69 70
32 31 29 28 27 25 24 23 21 19 18 18 18 20 22 23 24 23 23 25 29 32 33 34 33 32 30 28 29 30 32 34 35 35 35 35 36 37 37 36 35 35 36 40 45 50 55 59 62 64 66 68 70 71 72 72 72 72 72 71 70 69 68 68 68 69 69 69 70 70 69 69 69 69 68 69 69 69 69 69 69 70 70 71 72 73
28 26 26 25 24 23 22 20 19 18 17 17 18 19 21 25 27 30 32 32 32 32 33 34 34 33 32 31 31 32 34 36 37 37 38 39 41 43 44 44 41 38 39 45 50 55 57 59 61 62 64 67 69 71 72 72 72 73 73 72 71 70 68 67 68 68 69 70 70 71 71 71 70 70 70 70 71 71 71 71 71 72 73 74 76 77
31 29 27 26 25 23 22 21 20 19 19 19 20 22 24 27 30 33 35 35 34 34 34 34 34 34 34 34 35 36 38 40 41 41 42 46 49 51 51 50 47 44 45 50 54 57 59 60 60 61 63 66 68 70 72 72 72 72 72 72 71 69 68 67 67 68 69 71 71 72 72 72 72 72 72 72 72 73 73 73 74 75 76 78 79 79
36 33 30 28 27 26 25 25 25 26 27 28 28 28 28 28 29 30 32 32 33 34 35 34 34 35 36 36 38 40 44 46 46 47 48 52 54 55 55 52 49 49 53 56 57 59 59 59 60 61 62 64 67 69 72 73 72 71 71 71 70 69 68 67 67 69 70 71 73 74 74 74 74 74 74 74 74 74 74 75 76 78 80 81 81 81
43 39 36 33 32 31 31 30 29 28 29 29 29 29 29 28 28 27 27 27 29 31 32 33 34 36 37 39 43 47 51 51 51 51 54 57 58 58 57 54 54 55 58 58 58 59 60 60 60 61 62 63 65 68 71 72 72 72 71 70 69 69 68 68 68 69 70 72 73 74 75 75 75 75 75 75 76 76 76 77 79 81 83 83 83 82
45 43 40 37 35 33 32 30 28 27 26 26 26 26 27 27 27 27 26 26 28 31 33 35 36 37 38 42 48 53 57 55 53 52 55 59 60 59 58 57 57 58 59 58 59 61 65 65 64 62 62 62 64 67 70 72 72 72 71 70 69 69 69 68 68 69 71 72 74 75 76 76 77 77 76 76 77 77 78 80 82 83 85 85 85 83
43 42 40 39 37 36 34 32 30 28 25 23 23 24 26 28 29 30 29 30 33 35 37 37 37 38 39 45 51 57 58 57 54 52 55 59 60 60 59 59 59 59 60 59 59 60 63 66 66 65 63 62 63 65 68 71 72 72 71 70 69 69 69 69 69 69 71 73 74 76 77 78 78 78 78 78 78 79 80 82 84 85 86 86 85 83
43 43 43 43 42 42 41 39 37 35 33 31 29 29 30 31 33 34 34 36 37 38 39 39 39 39 42 47 53 58 59 57 55 53 55 59 60 60 59 59 59 60 60 59 58 59 61 64 65 65 63 61 61 64 67 70 72 72 71 70 68 68 69 69 69 69 70 73 75 77 78 79 79 79 79 79 80 81 82 84 86 86 87 86 85 83
45 46 47 48 49 49 48 48 46 44 41 38 35 34 34 36 37 37 38 39 40 41 41 40 40 42 44 50 55 58 60 58 56 55 56 59 60 60 60 60 59 59 59 58 58 58 59 61 62 62 60 60 61 63 67 70 71 72 71 69 68 68 68 69 68 68 70 73 76 78 79 80 80 80 80 81 81 82 84 86 87 87 87 86 85 83
46 47 47 50 52 54 55 54 52 49 46 43 40 38 38 39 41 42 43 43 43 43 42 41 42 43 46 51 56 59 60 59 58 57 58 60 60 61 60 60 59 59 59 59 58 58 58 58 58 58 58 59 61 63 66 70 71 72 70 69 67 66 66 66 66 67 69 73 76 79 81 82 82 82 81 82 82 83 85 87 87 87 87 87 86 83